Regional Weather Roundup
Issued by NWS

Home | Current Version | Previous Version | Text Only | Print | Product List | Glossary Off
Versions: 1 2 3 4 5 6 7 8 9 10 11 12 13 14 15 16 17 18 19 20 21 22 23 24 25 26 27 28 29 30 31 32 33 34 35 36 37 38 39 40 41 42 43 44 45 46 47 48 49 50

322
ASUS44 KJAN 151203
RWRMS

MISSISSIPPI HOURLY WEATHER ROUNDUP
NATIONAL WEATHER SERVICE JACKSON MS
700 AM CDT MON SEP 15 2014

NOTE: "FAIR: INDICATES FEW OR NO CLOUDS BELOW 12,000 FEET WITH NO
SIGNIFICANT WEATHER AND/OR OBSTRUCTIONS TO VISIBILITY.

MSZ001>002-007>008-010>013-018>021-025>028-034>036-151300-
NORTHWEST MISSISSIPPI

CITY           SKY/WX    TMP DP  RH WIND       PRES   REMARKS
CLARKSDALE     FAIR      63  63 100 CALM      30.17R
CLEVELAND      FAIR      64  63  97 N5        30.14S
GREENWOOD      PTCLDY    64  62  93 CALM      30.14R
6HR MIN TEMP:  64; 6HR MAX TEMP:  67;

GREENVILLE     PTCLDY    64  61  90 N3        30.14R
6HR MIN TEMP:  63; 6HR MAX TEMP:  67;

GRENADA        FAIR      63  61  94 CALM      30.15S
OLIVE BRANCH   MOCLDY    63  63 100 CALM      30.17R
OXFORD         FAIR      61  59  94 CALM      30.17S
TUNICA         PTSUNNY   61  59  94 NW3       30.17R
$$

MSZ003>006-009-014>017-022>024-029>033-037>039-151300-
NORTHEAST MISSISSIPPI

CITY           SKY/WX    TMP DP  RH WIND       PRES   REMARKS
COLUMBUS AFB   CLEAR     64  63  95 CALM      30.14S
6HR MIN TEMP:  64; 6HR MAX TEMP:  67;

CORINTH        FAIR      61  59  94 CALM      30.16S
GOLDN TRIANGLE CLEAR     64  59  82 NE5       30.15R
STARKVILLE     FAIR      63  61  94 CALM      30.14S
TUPELO         PTCLDY    64  60  87 NE6       30.15S
6HR MIN TEMP:  63; 6HR MAX TEMP:  65;

$$

MSZ040-058-151300-
CENTRAL MISSISSIPPI

CITY           SKY/WX    TMP DP  RH WIND       PRES   REMARKS
JACKSON INTL   PTCLDY    70  65  84 CALM      30.13R
6HR MIN TEMP:  69; 6HR MAX TEMP:  71;

JACKSON HAWKNS CLEAR     70  66  87 CALM      30.13R
6HR MIN TEMP:  69; 6HR MAX TEMP:  73;

MERIDIAN KEY   CLEAR     68  65  90 N6        30.13S
6HR MIN TEMP:  67; 6HR MAX TEMP:  71;

MERIDIAN NAS   PTCLDY    66  64  93 CALM      30.14R
6HR MIN TEMP:  66; 6HR MAX TEMP:  72;

RAYMOND        FAIR      66  61  82 CALM      30.13R HAZE
VICKSBURG      PTCLDY    68  66  93 N5        30.13R
6HR MIN TEMP:  68; 6HR MAX TEMP:  71;

$$

MSZ059>079-151300-
SOUTH MISSISSIPPI

CITY           SKY/WX    TMP DP  RH WIND       PRES   REMARKS
BROOKHAVEN     FAIR      70  70 100 CALM      30.14R FOG
HATTIESBURG    CLEAR     73  71  93 CALM      30.12R
6HR MIN TEMP:  71; 6HR MAX TEMP:  76;

MCCOMB         CLEAR     73  69  87 NE3       30.11S
6HR MIN TEMP:  73; 6HR MAX TEMP:  75;

NATCHEZ        CLEAR     66  64  94 CALM      30.12R
6HR MIN TEMP:  66; 6HR MAX TEMP:  70;

PINE BELT      CLEAR     70  66  88 CALM      30.13R
$$

MSZ080>082-151300-
COASTAL MISSISSIPPI

CITY           SKY/WX    TMP DP  RH WIND       PRES   REMARKS
BAY ST LOUIS   CLEAR     75  72  88 CALM      30.09
BILOXI         CLEAR     76  73  91 NE6       30.09R
6HR MIN TEMP:  75; 6HR MAX TEMP:  78;

PASCAGOULA     CLEAR     72  71  97 CALM      30.09R FOG
6HR MIN TEMP:  72; 6HR MAX TEMP:  74;

GULFPORT       CLEAR     76  73  91 NE5       30.08R
6HR MIN TEMP:  76; 6HR MAX TEMP:  78;

$$



USA.gov is the U.S. government's official web portal to all federal, state and local government web resources and services.